This is the latest recevied weather packets stored in our database for station/object OE3BCB-14. If no packets are shown the sender has not sent any weather packets the latest 10 day(s).
| Time | Temp. | Humidity | Pressure | Rain* | Wind** | Luminosity | Snow |
|---|---|---|---|---|---|---|---|
| 1777540906 | 16.67° C | 30% | 1032.4 hPa | - | - | 326 W/m² | - |
| 1777540302 | 16.67° C | 31% | 1032.4 hPa | - | - | 334 W/m² | - |
| 1777539697 | 16.67° C | 31% | 1032.6 hPa | - | - | 217 W/m² | - |
| 1777539394 | 16.11° C | 31% | 1032.7 hPa | - | - | 420 W/m² | - |
| 1777539092 | 16.67° C | 31% | 1032.8 hPa | - | - | 351 W/m² | - |
| 1777538789 | 16.67° C | 31% | 1032.9 hPa | - | - | 380 W/m² | - |
| 1777538185 | 17.22° C | 34% | 1032.8 hPa | - | - | 393 W/m² | - |
| 1777537882 | 16.11° C | 34% | 1033 hPa | - | - | 412 W/m² | - |
| 1777537278 | 15.56° C | 34% | 1033.1 hPa | - | - | 358 W/m² | - |
| 1777536975 | 15.56° C | 34% | 1033 hPa | - | - | 286 W/m² | - |
| 1777536673 | 15° C | 36% | 1033.2 hPa | - | - | 165 W/m² | - |
| 1777536370 | 14.44° C | 35% | 1033.2 hPa | - | - | 78 W/m² | - |
| 1777536068 | 13.89° C | 37% | 1033.2 hPa | - | - | 66 W/m² | - |
| 1777535765 | 11.67° C | 37% | 1033.2 hPa | - | - | 119 W/m² | - |
| 1777535463 | 11.11° C | 36% | 1033.3 hPa | - | - | 215 W/m² | - |
| 1777535161 | 11.11° C | 36% | 1033.2 hPa | - | - | 99 W/m² | - |
| 1777534858 | 10.56° C | 36% | 1033.2 hPa | - | - | 28 W/m² | - |
| 1777534556 | 10.56° C | 36% | 1033.2 hPa | - | - | 30 W/m² | - |
| 1777534253 | 10.56° C | 36% | 1033.2 hPa | - | - | 40 W/m² | - |
| 1777533951 | 10.56° C | 36% | 1033.2 hPa | - | - | 46 W/m² | - |
| 1777532741 | 10° C | 37% | 1033.4 hPa | - | - | 34 W/m² | - |
| 1777532136 | 10° C | 37% | 1033.3 hPa | - | - | 27 W/m² | - |
| 1777531834 | 10° C | 37% | 1033.3 hPa | - | - | 25 W/m² | - |
| 1777531532 | 10.56° C | 38% | 1033.3 hPa | - | - | 25 W/m² | - |
| 1777531229 | 10.56° C | 37% | 1033.3 hPa | - | - | 24 W/m² | - |
* Rain since midnight (hover to see other rain measurements)
** Current wind speed in m/s (hover to see current wind gust speed)